sat.trackr.live / text

‹ back to catalog

STARLINK-2612

NORAD 48379 · 2021-038AC

PAYLOAD ACTIVE UNKNOWN

§ Identity

Operator
Country
US
Launch date
2021-05-04
Launch site
AFETR
Launch vehicle
Mass (kg)
RCS (m²)

Purposes: comms

External: N2YO · Heavens-Above · Gunter

§ Orbital elements

Epoch: 2026-09-19T05:34:14.426688Z

Period
94.01 min
Inclination
53.1624°
Eccentricity
0.0001060
Mean motion
15.31698670 rev/d
Perigee alt
470.0 km
Apogee alt
471.5 km
Semi-major
6,848.9 km
B*
-1.1692e-5
RAAN
165.0379°
Arg perigee
77.4089°
Mean anomaly
282.7031°
Rev number
29,691

§ Raw data

STARLINK-26121 48379U 21038AC  26262.23211142 -.00000728  00000+0 -11692-4 0  99902 48379  53.1624 165.0379 0001060  77.4089 282.7031 15.31698670296913

JSON: /api/v1/satellites/48379 · /tle

For live sub-satellite position, see the globe view (requires WebGL).

§ Visibility from observer

Set your observer location to see the next 7 days of passes ≥ 10°. The values pass through the URL so the page stays shareable.

No JS? Fill the form by hand. The geolocation button needs JavaScript.